Find GalileoSat-1

NORAD ID: 37846 Int'l Des: 2011-060 Owner: ESA/GSAEU Country: I-ESA Constellation: Galileo operational
MEOCIRCULAR

当前视图

正在加载3D地球...

About GalileoSat-1

GalileoSat-1 (NORAD 37846) is a Galileo constellation satellite launched Oct 21, 2011 by ESA/GSAEU of I-ESA. It operates in MEO, CIRCULAR orbit with a mass of 700.00 kg.

关于 GalileoSat-1

正在加载描述...

即将过境

Passes for default location (London). Set your location on the main map for personalized predictions.

高度历史

Loading altitude history...

两行轨道根数

1 37846U 11060A 26194.24470205 -.00000093 00000-0 00000+0 0 9994
2 37846 56.9850 341.0553 0002286 61.5340 298.4760 1.70475537 91567
Epoch: Jul 13, 2026 • Age: 25 hours

当前状态

高度 23249.0 km
远地点 / 近地点 N/A
速度 3.67 km/s
星下点 -57.01°S, 137.6°W
发射日期 Oct 21, 2011
运行时间 14.7 years
类型 navigation

技术详情

分类 Payload
质量 700.00 kg
干质量 700.00 kg
总质量 700.00 kg
长度 2.70 m
直径 1.60 m
跨度 14.50 m
形状 Box + 2 Pan
制造商 EADSB/THALR
平台类型 GalileoSat
阶段状态 In Orbit
所有者/国家 ESA/GSAEU/I-ESA

Most Searched